| time (UTC) | temp F | wind direction | speed knots | gust knots | rain 1hr in | rain 24hr in | rain mn in | humidity % | barometer mb |
| 20260902221303 | 86 | 319 | 0.0 | 0.0 | 0.00 | 0.92 | 0.91 | 66 | 1008.5 |
| 20260902220803 | 87 | 319 | 0.0 | 0.9 | 0.00 | 0.92 | 0.91 | 66 | 1008.5 |
| 20260902215803 | 87 | 278 | 0.9 | 2.6 | 0.00 | 0.92 | 0.91 | 63 | 1008.6 |
| 20260902215306 | 86 | 280 | 0.9 | 2.6 | 0.00 | 0.92 | 0.91 | 63 | 1008.6 |
| 20260902214803 | 87 | 113 | 0.0 | 1.7 | 0.00 | 0.92 | 0.91 | 63 | 1008.5 |
| 20260902214303 | 87 | 226 | 0.9 | 2.6 | 0.00 | 0.92 | 0.91 | 63 | 1008.6 |
| 20260902213803 | 87 | 37 | 0.9 | 1.7 | 0.00 | 0.92 | 0.91 | 63 | 1008.6 |
| 20260902213304 | 88 | 183 | 0.9 | 2.6 | 0.00 | 0.92 | 0.91 | 63 | 1008.6 |
| 20260902212803 | 88 | 56 | 1.7 | 2.6 | 0.00 | 0.92 | 0.91 | 63 | 1008.7 |
| 20260902212305 | 88 | 344 | 0.9 | 2.6 | 0.00 | 0.92 | 0.91 | 63 | 1008.7 |
| 20260902211803 | 87 | 356 | 0.0 | 2.6 | 0.00 | 0.92 | 0.91 | 63 | 1008.7 |
| 20260902211303 | 87 | 251 | 2.6 | 4.3 | 0.00 | 0.92 | 0.91 | 63 | 1008.7 |
| 20260902210803 | 88 | 341 | 2.6 | 5.2 | 0.00 | 0.92 | 0.91 | 63 | 1008.7 |
| 20260902210303 | 87 | 151 | 0.0 | 2.6 | 0.00 | 0.92 | 0.91 | 63 | 1008.8 |
| 20260902205306 | 88 | 127 | 1.7 | 4.3 | 0.00 | 0.92 | 0.91 | 68 | 1008.8 |
| 20260902204803 | 87 | 175 | 0.0 | 1.7 | 0.00 | 0.92 | 0.91 | 68 | 1008.9 |
| 20260902204303 | 87 | 307 | 0.0 | 2.6 | 0.00 | 0.92 | 0.91 | 68 | 1009.1 |
| 20260902203804 | 88 | 204 | 1.7 | 2.6 | 0.00 | 0.92 | 0.91 | 68 | 1009.1 |
| 20260902203303 | 88 | 288 | 4.3 | 7.0 | 0.00 | 0.92 | 0.91 | 68 | 1009.1 |
| 20260902202804 | 87 | 157 | 0.9 | 2.6 | 0.00 | 0.92 | 0.91 | 68 | 1009.1 |
| 20260902202306 | 87 | 176 | 0.9 | 5.2 | 0.00 | 0.92 | 0.91 | 68 | 1009.1 |
| 20260902201803 | 87 | 196 | 2.6 | 5.2 | 0.00 | 0.92 | 0.91 | 68 | 1009.2 |
| 20260902201303 | 87 | 225 | 0.0 | 0.9 | 0.00 | 0.92 | 0.91 | 68 | 1009.1 |
| 20260902200803 | 87 | 231 | 1.7 | 4.3 | 0.00 | 0.92 | 0.91 | 68 | 1009.1 |
| 20260902200304 | 87 | 163 | 0.9 | 1.7 | 0.00 | 0.92 | 0.91 | 68 | 1009.1 |
| 20260902195306 | 86 | 139 | 0.0 | 2.6 | 0.00 | 0.92 | 0.91 | 65 | 1009.0 |
| 20260902194804 | 86 | 213 | 1.7 | 4.3 | 0.00 | 0.92 | 0.91 | 65 | 1009.1 |
| 20260902194303 | 87 | 195 | 0.0 | 0.9 | 0.00 | 0.92 | 0.91 | 65 | 1009.2 |
| 20260902193803 | 86 | 190 | 1.7 | 4.3 | 0.00 | 0.92 | 0.91 | 65 | 1009.3 |
| 20260902193303 | 86 | 184 | 0.9 | 2.6 | 0.00 | 0.92 | 0.91 | 65 | 1009.3 |
| 20260902192803 | 86 | 247 | 0.0 | 4.3 | 0.00 | 0.92 | 0.91 | 65 | 1009.4 |
| 20260902192306 | 86 | 118 | 0.9 | 5.2 | 0.00 | 0.92 | 0.91 | 65 | 1009.4 |
| 20260902191803 | 86 | 127 | 0.9 | 4.3 | 0.00 | 0.92 | 0.91 | 65 | 1009.4 |
| 20260902191303 | 85 | 123 | 0.0 | 1.7 | 0.00 | 0.92 | 0.91 | 65 | 1009.5 |
| 20260902190803 | 86 | 141 | 1.7 | 2.6 | 0.00 | 0.92 | 0.91 | 65 | 1009.7 |
| 20260902185804 | 85 | 200 | 0.0 | 2.6 | 0.00 | 0.92 | 0.91 | 72 | 1009.8 |
| 20260902184803 | 85 | 198 | 0.9 | 5.2 | 0.00 | 0.92 | 0.91 | 72 | 1009.9 |
| 20260902184303 | 85 | 173 | 0.9 | 4.3 | 0.00 | 0.92 | 0.91 | 72 | 1009.8 |
| 20260902183804 | 85 | 219 | 0.0 | 2.6 | 0.00 | 0.92 | 0.91 | 72 | 1009.8 |
| 20260902182803 | 85 | 218 | 0.9 | 2.6 | 0.00 | 0.92 | 0.91 | 72 | 1010.0 |
| 20260902182306 | 83 | 230 | 0.0 | 2.6 | 0.00 | 0.92 | 0.91 | 72 | 1010.0 |
| 20260902181303 | 84 | 120 | 0.9 | 2.6 | 0.00 | 0.92 | 0.91 | 72 | 1010.0 |
| 20260902180803 | 84 | 228 | 1.7 | 5.2 | 0.00 | 0.92 | 0.91 | 72 | 1010.2 |
| 20260902180304 | 84 | 168 | 0.0 | 1.7 | 0.00 | 0.92 | 0.91 | 72 | 1010.3 |
| 20260902175307 | 83 | 229 | 0.9 | 2.6 | 0.00 | 0.92 | 0.91 | 74 | 1010.5 |
| 20260902174803 | 83 | 210 | 0.9 | 6.1 | 0.00 | 0.92 | 0.91 | 74 | 1010.6 |
| 20260902174304 | 83 | 205 | 0.9 | 6.1 | 0.00 | 0.92 | 0.91 | 74 | 1010.6 |
| 20260902173804 | 83 | 126 | 1.7 | 5.2 | 0.00 | 0.92 | 0.91 | 74 | 1010.6 |
| 20260902173303 | 83 | 267 | 2.6 | 7.8 | 0.00 | 0.92 | 0.91 | 74 | 1010.7 |
| 20260902172803 | 82 | 218 | 1.7 | 6.1 | 0.00 | 0.92 | 0.91 | 74 | 1010.8 |
| 20260902172308 | 82 | 280 | 2.6 | 10.4 | 0.00 | 0.92 | 0.91 | 74 | 1010.8 |
| 20260902171803 | 82 | 237 | 2.6 | 7.8 | 0.00 | 0.92 | 0.91 | 74 | 1010.9 |
| 20260902171303 | 82 | 182 | 2.6 | 7.0 | 0.00 | 0.92 | 0.91 | 74 | 1010.9 |
| 20260902170803 | 82 | 199 | 1.7 | 5.2 | 0.00 | 0.92 | 0.91 | 74 | 1010.8 |
| 20260902170303 | 82 | 238 | 0.9 | 4.3 | 0.00 | 0.92 | 0.91 | 74 | 1010.9 |
| 20260902165803 | 81 | 185 | 2.6 | 6.1 | 0.00 | 0.92 | 0.91 | 80 | 1010.9 |
| 20260902165308 | 81 | 200 | 0.9 | 2.6 | 0.00 | 0.92 | 0.91 | 80 | 1010.9 |
| 20260902164803 | 80 | 154 | 1.7 | 6.1 | 0.00 | 0.92 | 0.91 | 80 | 1010.9 |
| 20260902164303 | 80 | 221 | 0.9 | 2.6 | 0.00 | 0.92 | 0.91 | 80 | 1010.9 |
| 20260902163803 | 80 | 148 | 3.5 | 6.1 | 0.00 | 0.92 | 0.91 | 80 | 1010.8 |
| 20260902163304 | 80 | 163 | 2.6 | 7.0 | 0.00 | 0.92 | 0.91 | 80 | 1010.8 |
| 20260902162803 | 79 | 191 | 1.7 | 7.8 | 0.00 | 0.92 | 0.91 | 80 | 1010.8 |
| 20260902162306 | 79 | 182 | 1.7 | 7.0 | 0.00 | 0.92 | 0.91 | 80 | 1010.9 |
| 20260902161803 | 79 | 142 | 4.3 | 7.8 | 0.00 | 0.92 | 0.91 | 80 | 1010.9 |
| 20260902161303 | 79 | 162 | 2.6 | 7.8 | 0.00 | 0.92 | 0.91 | 80 | 1010.8 |
| 20260902160803 | 78 | 129 | 0.9 | 5.2 | 0.00 | 0.92 | 0.91 | 80 | 1010.7 |
| 20260902155803 | 78 | 156 | 1.7 | 7.0 | 0.00 | 0.92 | 0.91 | 89 | 1010.6 |
| 20260902155306 | 77 | 158 | 2.6 | 7.0 | 0.00 | 0.92 | 0.91 | 89 | 1010.6 |
| 20260902154303 | 76 | 129 | 2.6 | 6.1 | 0.00 | 0.92 | 0.91 | 89 | 1010.7 |
| 20260902153803 | 76 | 134 | 2.6 | 6.1 | 0.00 | 0.92 | 0.91 | 89 | 1010.8 |
| 20260902153303 | 75 | 147 | 3.5 | 8.7 | 0.00 | 0.92 | 0.91 | 89 | 1010.8 |
| 20260902152803 | 75 | 165 | 2.6 | 8.7 | 0.00 | 0.92 | 0.91 | 89 | 1010.6 |
| 20260902152307 | 74 | 140 | 2.6 | 8.7 | 0.00 | 0.92 | 0.91 | 89 | 1010.8 |
| 20260902151803 | 74 | 146 | 2.6 | 7.0 | 0.00 | 0.92 | 0.91 | 89 | 1010.7 |
| 20260902151303 | 74 | 171 | 4.3 | 8.7 | 0.00 | 0.92 | 0.91 | 89 | 1010.7 |
| 20260902150303 | 73 | 132 | 3.5 | 7.0 | 0.00 | 0.92 | 0.91 | 91 | 1010.8 |
| 20260902145803 | 72 | 167 | 1.7 | 7.8 | 0.00 | 0.92 | 0.91 | 100 | 1010.8 |
| 20260902144803 | 71 | 167 | 0.9 | 6.1 | 0.00 | 0.92 | 0.91 | 100 | 1010.6 |
| 20260902144304 | 71 | 159 | 2.6 | 7.0 | 0.00 | 0.92 | 0.91 | 100 | 1010.6 |
| 20260902143803 | 71 | 116 | 2.6 | 7.8 | 0.00 | 0.92 | 0.91 | 100 | 1010.6 |
| 20260902143303 | 70 | 113 | 2.6 | 7.8 | 0.00 | 0.92 | 0.91 | 100 | 1010.7 |
| 20260902142803 | 70 | 216 | 1.7 | 7.0 | 0.00 | 0.92 | 0.91 | 100 | 1010.9 |
| 20260902142306 | 69 | 146 | 4.3 | 10.4 | 0.00 | 0.92 | 0.91 | 100 | 1011.0 |
| 20260902141803 | 69 | 120 | 3.5 | 8.7 | 0.00 | 0.92 | 0.91 | 100 | 1011.0 |
| 20260902141303 | 69 | 127 | 0.9 | 4.3 | 0.00 | 0.92 | 0.91 | 100 | 1011.0 |
| 20260902140803 | 68 | 142 | 0.0 | 5.2 | 0.00 | 0.92 | 0.91 | 100 | 1011.0 |
| 20260902140303 | 68 | 138 | 1.7 | 6.1 | 0.00 | 0.92 | 0.91 | 100 | 1011.0 |
| 20260902135803 | 68 | 141 | 3.5 | 7.8 | 0.00 | 0.92 | 0.91 | 100 | 1011.0 |
| 20260902135306 | 67 | 134 | 6.1 | 8.7 | 0.00 | 0.92 | 0.91 | 100 | 1010.9 |
| 20260902134803 | 67 | 162 | 0.0 | 5.2 | 0.00 | 0.92 | 0.91 | 100 | 1010.9 |
| 20260902134303 | 67 | 138 | 2.6 | 5.2 | 0.00 | 0.92 | 0.91 | 100 | 1011.0 |
| 20260902133803 | 66 | 131 | 1.7 | 4.3 | 0.00 | 0.92 | 0.91 | 100 | 1011.0 |
| 20260902133303 | 66 | 210 | 1.7 | 4.3 | 0.00 | 0.92 | 0.91 | 100 | 1011.2 |
| 20260902132306 | 65 | 195 | 4.3 | 6.1 | 0.00 | 0.92 | 0.91 | 100 | 1011.3 |
| 20260902131803 | 65 | 195 | 2.6 | 6.1 | 0.00 | 0.92 | 0.91 | 100 | 1011.4 |
| 20260902131304 | 65 | 187 | 2.6 | 6.1 | 0.00 | 0.92 | 0.91 | 100 | 1011.4 |
| 20260902130803 | 65 | 172 | 2.6 | 5.2 | 0.00 | 0.92 | 0.91 | 100 | 1011.4 |
| 20260902130303 | 64 | 95 | 1.7 | 4.3 | 0.00 | 0.92 | 0.91 | 100 | 1011.3 |
| 20260902125804 | 64 | 0 | 0.9 | 5.2 | 0.01 | 0.92 | 0.91 | 100 | 1011.6 |
| 20260902125305 | 64 | 0 | 1.7 | 4.3 | 0.01 | 0.92 | 0.91 | 100 | 1011.6 |
| 20260902124804 | 64 | 0 | 1.7 | 2.6 | 0.01 | 0.92 | 0.91 | 100 | 1011.8 |
| 20260902124303 | 64 | 0 | 0.9 | 2.6 | 0.01 | 0.92 | 0.91 | 100 | 1011.6 |
| 20260902123804 | 63 | 0 | 0.9 | 2.6 | 0.01 | 0.92 | 0.91 | 100 | 1011.3 |
| 20260902123303 | 63 | 0 | 2.6 | 4.3 | 0.01 | 0.92 | 0.91 | 100 | 1011.3 |
| 20260902122305 | 63 | 0 | 6.1 | 10.4 | 0.01 | 0.92 | 0.91 | 100 | 1010.4 |
| 20260902121803 | 63 | 0 | 0.9 | 2.6 | 0.01 | 0.92 | 0.91 | 100 | 1011.0 |
| 20260902121303 | 63 | 0 | 1.7 | 2.6 | 0.01 | 0.92 | 0.91 | 100 | 1010.5 |
| 20260902120303 | 63 | 0 | 0.9 | 2.6 | 0.01 | 0.92 | 0.91 | 100 | 1010.8 |
| 20260902115803 | 63 | 0 | 0.9 | 2.6 | 0.00 | 0.91 | 0.90 | 100 | 1010.8 |
| 20260902115306 | 63 | 0 | 0.0 | 1.7 | 0.00 | 0.91 | 0.90 | 100 | 1011.0 |
| 20260902114803 | 63 | 0 | 1.7 | 5.2 | 0.00 | 0.91 | 0.90 | 100 | 1011.0 |
| 20260902114303 | 63 | 0 | 0.0 | 1.7 | 0.00 | 0.91 | 0.90 | 100 | 1010.8 |
| 20260902113803 | 63 | 0 | 1.7 | 2.6 | 0.00 | 0.91 | 0.90 | 100 | 1010.9 |
| 20260902113303 | 63 | 0 | 0.9 | 2.6 | 0.00 | 0.91 | 0.90 | 100 | 1011.0 |
| 20260902112803 | 63 | 0 | 0.9 | 2.6 | 0.00 | 0.91 | 0.90 | 100 | 1011.2 |
| 20260902112305 | 63 | 0 | 1.7 | 2.6 | 0.00 | 0.91 | 0.90 | 100 | 1011.2 |
| 20260902111803 | 63 | 0 | 0.9 | 2.6 | 0.01 | 0.91 | 0.90 | 100 | 1011.4 |
| 20260902111303 | 63 | 0 | 1.7 | 2.6 | 0.01 | 0.91 | 0.90 | 100 | 1011.3 |
| 20260902110803 | 63 | 0 | 1.7 | 2.6 | 0.01 | 0.91 | 0.90 | 100 | 1011.6 |
| 20260902110303 | 63 | 0 | 0.0 | 2.6 | 0.01 | 0.91 | 0.90 | 100 | 1011.9 |
| 20260902105306 | 63 | 0 | 0.9 | 4.3 | 0.01 | 0.91 | 0.90 | 100 | 1012.2 |
| 20260902104804 | 63 | 0 | 0.0 | 2.6 | 0.01 | 0.91 | 0.90 | 100 | 1012.2 |
| 20260902104303 | 63 | 0 | 0.9 | 2.6 | 0.01 | 0.91 | 0.90 | 100 | 1012.4 |
| 20260902103803 | 64 | 0 | 1.7 | 5.2 | 0.01 | 0.91 | 0.90 | 100 | 1012.8 |
| 20260902103303 | 64 | 0 | 1.7 | 7.0 | 0.01 | 0.91 | 0.90 | 100 | 1013.0 |
| 20260902102804 | 64 | 0 | 0.9 | 4.3 | 0.01 | 0.91 | 0.90 | 100 | 1012.9 |
| 20260902102307 | 64 | 0 | 2.6 | 13.0 | 0.01 | 0.91 | 0.90 | 100 | 1013.1 |
| 20260902101804 | 64 | 0 | 1.7 | 4.3 | 0.00 | 0.90 | 0.89 | 100 | 1013.1 |
| 20260902101303 | 64 | 0 | 0.9 | 5.2 | 0.00 | 0.90 | 0.89 | 100 | 1012.5 |
| 20260902100804 | 64 | 0 | 1.7 | 5.2 | 0.00 | 0.90 | 0.89 | 100 | 1012.4 |
| 20260902100303 | 64 | 0 | 0.9 | 4.3 | 0.00 | 0.90 | 0.89 | 100 | 1012.2 |
| 20260902095804 | 64 | 0 | 0.9 | 2.6 | 0.00 | 0.90 | 0.89 | 100 | 1011.4 |
| 20260902095306 | 64 | 0 | 0.9 | 1.7 | 0.00 | 0.90 | 0.89 | 100 | 1011.2 |
| 20260902094804 | 64 | 0 | 0.0 | 0.9 | 0.00 | 0.90 | 0.89 | 100 | 1010.9 |
| 20260902094304 | 64 | 0 | 0.0 | 0.9 | 0.00 | 0.90 | 0.89 | 100 | 1010.8 |
| 20260902093804 | 64 | 0 | 0.0 | 0.0 | 0.00 | 0.90 | 0.89 | 100 | 1010.7 |
| 20260902093303 | 64 | 0 | 0.0 | 0.9 | 0.00 | 0.90 | 0.89 | 100 | 1010.7 |
| 20260902092803 | 64 | 0 | 0.9 | 4.3 | 0.00 | 0.90 | 0.89 | 100 | 1010.5 |
| 20260902092305 | 64 | 0 | 0.9 | 2.6 | 0.00 | 0.90 | 0.89 | 100 | 1010.5 |
| 20260902091803 | 64 | 0 | 0.0 | 2.6 | 0.00 | 0.90 | 0.89 | 100 | 1010.7 |
| 20260902091303 | 64 | 0 | 0.9 | 2.6 | 0.00 | 0.90 | 0.89 | 100 | 1010.6 |
| 20260902090803 | 64 | 0 | 0.0 | 2.6 | 0.00 | 0.90 | 0.89 | 100 | 1010.7 |
| 20260902090303 | 64 | 0 | 0.9 | 2.6 | 0.00 | 0.90 | 0.89 | 100 | 1010.8 |
| 20260902085803 | 64 | 0 | 1.7 | 2.6 | 0.00 | 0.90 | 0.89 | 100 | 1010.6 |
| 20260902085306 | 64 | 0 | 1.7 | 5.2 | 0.00 | 0.90 | 0.89 | 100 | 1010.6 |
| 20260902084803 | 64 | 0 | 0.0 | 2.6 | 0.00 | 0.90 | 0.89 | 100 | 1011.0 |
| 20260902084303 | 64 | 0 | 1.7 | 5.2 | 0.01 | 0.90 | 0.89 | 100 | 1010.8 |
| 20260902083803 | 64 | 0 | 2.6 | 7.0 | 0.01 | 0.90 | 0.89 | 100 | 1010.5 |
| 20260902083303 | 64 | 0 | 1.7 | 7.8 | 0.01 | 0.90 | 0.89 | 100 | 1010.5 |
| 20260902082803 | 64 | 0 | 0.9 | 2.6 | 0.02 | 0.90 | 0.89 | 100 | 1011.1 |
| 20260902082308 | 64 | 0 | 3.5 | 8.7 | 0.04 | 0.90 | 0.89 | 100 | 1010.5 |
| 20260902081803 | 64 | 0 | 0.9 | 5.2 | 0.04 | 0.90 | 0.89 | 100 | 1011.1 |
| 20260902081303 | 64 | 0 | 5.2 | 10.4 | 0.04 | 0.90 | 0.89 | 100 | 1010.2 |
| 20260902080803 | 64 | 0 | 3.5 | 7.8 | 0.05 | 0.90 | 0.89 | 100 | 1010.8 |
| 20260902080303 | 64 | 0 | 2.6 | 8.7 | 0.05 | 0.90 | 0.89 | 100 | 1010.6 |
| 20260902075803 | 64 | 0 | 2.6 | 8.7 | 0.06 | 0.90 | 0.89 | 100 | 1010.3 |
| 20260902074803 | 64 | 0 | 4.3 | 10.4 | 0.12 | 0.90 | 0.89 | 100 | 1010.0 |
| 20260902074304 | 64 | 0 | 3.5 | 8.7 | 0.15 | 0.89 | 0.88 | 100 | 1010.3 |
| 20260902073803 | 64 | 0 | 1.7 | 4.3 | 0.25 | 0.89 | 0.88 | 100 | 1010.3 |
| 20260902073303 | 64 | 0 | 2.6 | 4.3 | 0.37 | 0.89 | 0.88 | 100 | 1010.7 |
| 20260902072804 | 64 | 0 | 3.5 | 10.4 | 0.55 | 0.88 | 0.87 | 100 | 1010.8 |
| 20260902072309 | 64 | 0 | 4.3 | 8.7 | 0.61 | 0.86 | 0.85 | 100 | 1011.1 |
| 20260902071803 | 64 | 0 | 3.5 | 13.0 | 0.65 | 0.86 | 0.85 | 100 | 1011.2 |
| 20260902071303 | 64 | 0 | 6.1 | 14.8 | 0.66 | 0.86 | 0.85 | 100 | 1011.1 |
| 20260902070303 | 66 | 0 | 7.0 | 12.2 | 0.65 | 0.85 | 0.84 | 100 | 1012.9 |
| 20260902065306 | 66 | 0 | 5.2 | 8.7 | 0.76 | 0.82 | 0.81 | 100 | 1015.4 |
| 20260902064804 | 66 | 0 | 4.3 | 8.7 | 0.75 | 0.78 | 0.77 | 100 | 1016.3 |
| 20260902063803 | 67 | 0 | 1.7 | 10.4 | 0.61 | 0.64 | 0.63 | 100 | 1014.9 |
| 20260902063303 | 68 | 0 | 6.1 | 18.2 | 0.49 | 0.52 | 0.51 | 100 | 1015.2 |
| 20260902062803 | 68 | 0 | 5.2 | 14.8 | 0.30 | 0.33 | 0.32 | 100 | 1014.0 |
| 20260902061804 | 68 | 0 | 1.7 | 2.6 | 0.18 | 0.21 | 0.20 | 100 | 1010.7 |
| 20260902061303 | 68 | 0 | 0.9 | 4.3 | 0.17 | 0.20 | 0.19 | 100 | 1010.3 |
| 20260902060804 | 68 | 0 | 7.8 | 15.6 | 0.18 | 0.20 | 0.19 | 100 | 1009.4 |
| 20260902060303 | 68 | 0 | 7.8 | 11.3 | 0.19 | 0.20 | 0.19 | 100 | 1010.3 |
| 20260902055803 | 68 | 0 | 5.2 | 11.3 | 0.16 | 0.18 | 0.17 | 100 | 1010.6 |
| 20260902055306 | 69 | 0 | 5.2 | 10.4 | 0.05 | 0.06 | 0.05 | 100 | 1010.8 |
| 20260902054803 | 69 | 0 | 4.3 | 10.4 | 0.02 | 0.03 | 0.02 | 100 | 1010.1 |
| 20260902054303 | 70 | 0 | 3.5 | 7.8 | 0.02 | 0.03 | 0.02 | 100 | 1010.5 |
| 20260902053804 | 70 | 0 | 2.6 | 10.4 | 0.02 | 0.03 | 0.02 | 100 | 1010.7 |
| 20260902053303 | 70 | 0 | 4.3 | 5.2 | 0.02 | 0.03 | 0.02 | 100 | 1010.5 |
| 20260902052803 | 70 | 0 | 0.9 | 2.6 | 0.02 | 0.03 | 0.02 | 100 | 1009.9 |
| 20260902052306 | 70 | 0 | 0.9 | 2.6 | 0.02 | 0.03 | 0.02 | 100 | 1010.4 |
| 20260902051804 | 70 | 0 | 0.0 | 0.9 | 0.02 | 0.03 | 0.02 | 100 | 1010.8 |
| 20260902051303 | 70 | 0 | 0.0 | 0.9 | 0.02 | 0.03 | 0.02 | 100 | 1010.8 |
| 20260902050811 | 70 | 0 | 0.9 | 1.7 | 0.01 | 0.02 | 0.01 | 100 | 1010.7 |
| 20260902045803 | 70 | 0 | 0.0 | 1.7 | 0.01 | 0.01 | 0.01 | 100 | 1011.2 |
| 20260902045306 | 70 | 0 | 0.0 | 0.0 | 0.00 | 0.00 | 0.00 | 100 | 1011.1 |
| 20260902044803 | 70 | 0 | 0.0 | 0.0 | 0.00 | 0.00 | 0.00 | 100 | 1011.2 |
| 20260902044304 | 70 | 0 | 0.0 | 0.0 | 0.00 | 0.00 | 0.00 | 100 | 1010.5 |
| 20260902043803 | 70 | 0 | 0.0 | 0.0 | 0.00 | 0.00 | 0.00 | 100 | 1010.6 |
| 20260902043304 | 70 | 0 | 0.0 | 0.0 | 0.00 | 0.00 | 0.00 | 100 | 1010.4 |
| 20260902042803 | 70 | 0 | 0.0 | 0.0 | 0.00 | 0.00 | 0.00 | 100 | 1010.6 |
| 20260902042308 | 70 | 0 | 0.0 | 0.0 | 0.00 | 0.00 | 0.00 | 100 | 1010.9 |
| 20260902041803 | 70 | 0 | 0.0 | 0.0 | 0.00 | 0.00 | 0.00 | 100 | 1010.7 |
| 20260902041303 | 70 | 0 | 0.0 | 0.0 | 0.00 | 0.00 | 0.00 | 100 | 1010.4 |
| 20260902040803 | 70 | 0 | 0.0 | 0.0 | 0.00 | 0.00 | 0.00 | 100 | 1010.5 |
| 20260902040304 | 70 | 0 | 0.0 | 0.0 | 0.00 | 0.00 | 0.00 | 100 | 1010.7 |
| 20260902035305 | 69 | 0 | 0.0 | 0.0 | 0.00 | 0.00 | 0.00 | 100 | 1010.7 |
| 20260902034803 | 69 | 0 | 0.0 | 0.0 | 0.00 | 0.00 | 0.00 | 100 | 1010.9 |
| 20260902033803 | 70 | 0 | 0.0 | 0.0 | 0.00 | 0.00 | 0.00 | 100 | 1011.1 |
| 20260902033304 | 70 | 0 | 0.0 | 0.0 | 0.00 | 0.00 | 0.00 | 100 | 1011.3 |
| 20260902032804 | 70 | 0 | 0.0 | 0.0 | 0.00 | 0.00 | 0.00 | 100 | 1011.2 |
| 20260902032306 | 70 | 0 | 0.0 | 0.0 | 0.00 | 0.00 | 0.00 | 100 | 1011.3 |
| 20260902031803 | 70 | 0 | 0.0 | 0.0 | 0.00 | 0.00 | 0.00 | 100 | 1011.3 |
| 20260902031303 | 70 | 0 | 0.0 | 0.0 | 0.00 | 0.00 | 0.00 | 100 | 1011.3 |
| 20260902025804 | 71 | 0 | 0.0 | 0.0 | 0.00 | 0.00 | 0.00 | 100 | 1011.3 |
| 20260902025306 | 71 | 0 | 0.0 | 0.0 | 0.00 | 0.00 | 0.00 | 100 | 1011.2 |
| 20260902024303 | 71 | 0 | 0.0 | 0.0 | 0.00 | 0.00 | 0.00 | 100 | 1011.2 |
| 20260902023803 | 71 | 0 | 0.0 | 0.0 | 0.00 | 0.00 | 0.00 | 100 | 1011.1 |
| 20260902023304 | 71 | 0 | 0.0 | 0.0 | 0.00 | 0.00 | 0.00 | 100 | 1011.2 |
| 20260902022804 | 71 | 0 | 0.0 | 0.0 | 0.00 | 0.00 | 0.00 | 100 | 1011.2 |
| 20260902022306 | 71 | 0 | 0.0 | 0.0 | 0.00 | 0.00 | 0.00 | 100 | 1011.2 |
| 20260902021803 | 71 | 0 | 0.0 | 0.0 | 0.00 | 0.00 | 0.00 | 100 | 1011.1 |
| 20260902021304 | 71 | 0 | 0.0 | 0.0 | 0.00 | 0.00 | 0.00 | 100 | 1011.2 |
| 20260902020804 | 71 | 0 | 0.0 | 0.0 | 0.00 | 0.00 | 0.00 | 100 | 1011.2 |
| 20260902020303 | 71 | 0 | 0.0 | 0.0 | 0.00 | 0.00 | 0.00 | 100 | 1011.2 |
| 20260902015803 | 72 | 0 | 0.0 | 0.9 | 0.00 | 0.00 | 0.00 | 100 | 1011.1 |
| 20260902015306 | 72 | 0 | 0.0 | 0.0 | 0.00 | 0.00 | 0.00 | 100 | 1011.0 |
| 20260902014804 | 72 | 0 | 0.0 | 0.0 | 0.00 | 0.00 | 0.00 | 100 | 1011.0 |
| 20260902014304 | 72 | 306 | 0.0 | 0.0 | 0.00 | 0.00 | 0.00 | 100 | 1011.0 |
| 20260902013803 | 73 | 306 | 0.0 | 0.0 | 0.00 | 0.00 | 0.00 | 100 | 1011.0 |
| 20260902013304 | 73 | 306 | 0.0 | 0.0 | 0.00 | 0.00 | 0.00 | 100 | 1010.9 |
| 20260902012309 | 73 | 306 | 0.0 | 0.9 | 0.00 | 0.00 | 0.00 | 100 | 1010.9 |
| 20260902011803 | 74 | 306 | 0.0 | 0.0 | 0.00 | 0.00 | 0.00 | 100 | 1010.8 |
| 20260902011303 | 74 | 306 | 0.0 | 0.0 | 0.00 | 0.00 | 0.00 | 100 | 1010.8 |
| 20260902010803 | 74 | 306 | 0.0 | 0.0 | 0.00 | 0.00 | 0.00 | 100 | 1010.8 |
| 20260902010303 | 75 | 306 | 0.0 | 0.0 | 0.00 | 0.00 | 0.00 | 100 | 1010.8 |
| 20260902005803 | 75 | 306 | 0.0 | 0.0 | 0.00 | 0.00 | 0.00 | 93 | 1010.9 |
| 20260902005305 | 75 | 306 | 0.0 | 0.0 | 0.00 | 0.00 | 0.00 | 93 | 1010.9 |
| 20260902003803 | 76 | 306 | 0.0 | 0.0 | 0.00 | 0.00 | 0.00 | 93 | 1010.9 |
| 20260902003304 | 77 | 306 | 0.0 | 0.0 | 0.00 | 0.00 | 0.00 | 93 | 1010.9 |
| 20260902002803 | 77 | 306 | 0.0 | 0.0 | 0.00 | 0.00 | 0.00 | 93 | 1010.9 |
| 20260902001804 | 77 | 306 | 0.0 | 0.0 | 0.00 | 0.00 | 0.00 | 93 | 1011.0 |
| 20260902001303 | 78 | 306 | 0.0 | 0.0 | 0.00 | 0.00 | 0.00 | 93 | 1011.0 |
| 20260902000803 | 78 | 306 | 0.0 | 0.0 | 0.00 | 0.00 | 0.00 | 93 | 1011.0 |
| 20260902000304 | 78 | 306 | 0.0 | 0.0 | 0.00 | 0.00 | 0.00 | 93 | 1011.0 |
| 20260901235803 | 79 | 306 | 0.0 | 0.0 | 0.00 | 0.00 | 0.00 | 86 | 1011.0 |
| 20260901234803 | 79 | 306 | 0.0 | 0.0 | 0.00 | 0.00 | 0.00 | 86 | 1010.9 |
| 20260901234303 | 80 | 306 | 0.0 | 0.0 | 0.00 | 0.00 | 0.00 | 86 | 1010.8 |
| 20260901233303 | 80 | 306 | 0.0 | 0.0 | 0.00 | 0.00 | 0.00 | 86 | 1010.9 |
| 20260901232803 | 80 | 306 | 0.0 | 0.0 | 0.00 | 0.00 | 0.00 | 86 | 1010.9 |
| 20260901231803 | 81 | 306 | 0.0 | 1.7 | 0.00 | 0.00 | 0.00 | 86 | 1010.9 |
| 20260901231303 | 81 | 306 | 0.0 | 1.7 | 0.00 | 0.00 | 0.00 | 86 | 1010.8 |
| 20260901230303 | 80 | 306 | 0.0 | 0.0 | 0.00 | 0.00 | 0.00 | 86 | 1010.7 |
| 20260901224803 | 81 | 306 | 0.0 | 0.0 | 0.00 | 0.00 | 0.00 | 78 | 1010.6 |
| 20260901224303 | 82 | 306 | 0.0 | 0.0 | 0.00 | 0.00 | 0.00 | 78 | 1010.6 |
| 20260901223804 | 82 | 306 | 0.0 | 0.0 | 0.00 | 0.00 | 0.00 | 78 | 1010.6 |
| 20260901223304 | 83 | 306 | 0.0 | 0.9 | 0.00 | 0.00 | 0.00 | 78 | 1010.6 |
| 20260901222803 | 83 | 306 | 0.0 | 0.0 | 0.00 | 0.00 | 0.00 | 78 | 1010.8 |
| 20260901221803 | 83 | 267 | 0.9 | 2.6 | 0.00 | 0.00 | 0.00 | 78 | 1011.0 |